Voltar ao catálogo

DMSP 5D-2 F15 DEB

AtivoPO
NORAD 26147·DEBRIS·🇺🇸 United States

Lançado Dec 12, 1999 de Vandenberg Space Force Base

Loading…

Próximas Passagens (próximas 24 horas)

TLE

AtualizadoSource: Space-Track

Época: Sep 14, 2026, 14:15 UTC

1 26147U 99067E   26257.59421497  .00016706  00000-0  15231-2 0  9998
2 26147  98.8247  20.2606 0003054 167.4198 257.7327 14.95205671405422

Acompanhe DMSP 5D-2 F15 DEB em tempo real com AllMySat

Download on the App Store